Location: Fort Wayne
(41.1310°N, 85.1290°W)
Time: 08:33:00
(UTC-04:00)

Meteor 2-9 Rocket - Visible Passes

Search period start: 02 July 2015 00:00
Search period end: 12 July 2015 00:00
Orbit: 792 x 895 km, 81.3° (Epoch: 01 July)

Date Brightness Start Highest point End Pass type
(mag) Time Alt. Az. Time Alt. Az. Time Alt. Az.
04 Jul 5.3 05:23:52 10° SSE 05:29:26 49° E 05:35:05 10° NNE visible
05 Jul 5.5 05:09:57 10° SSE 05:15:24 43° E 05:20:57 10° NNE visible
06 Jul 5.7 04:56:05 10° SSE 05:01:23 38° E 05:06:48 10° NNE visible
07 Jul 5.8 04:42:14 10° SSE 04:47:22 34° E 04:52:37 10° NNE visible
08 Jul 6.0 04:28:26 10° SSE 04:33:22 30° E 04:38:26 10° NNE visible
09 Jul 6.1 04:14:39 10° SE 04:19:22 27° E 04:24:13 10° NNE visible
10 Jul 6.3 04:00:55 10° SE 04:05:21 24° E 04:09:58 10° NE visible
10 Jul 4.7 05:42:13 10° SSW 05:47:52 48° WNW 05:53:30 10° N visible
11 Jul 6.4 03:47:14 10° SE 03:51:21 21° E 03:55:40 10° NE visible
11 Jul 4.6 05:28:03 10° SSW 05:33:47 54° WNW 05:39:29 10° N visible
